Weather History for East Milton, MA

Change the Weather History Date:

Wednesday, April 16, 2014

  Actual Average (KBOS) Record (KBOS)
Temperature  
Mean Temperature 36 °F 48 °F  
Max Temperature 44 °F 56 °F 87 °F (2012)
Min Temperature 28 °F 41 °F 28 °F (1928)
Degree Days  
Heating Degree Days 29 17  
Month to date heating degree days 310  
Since 1 July heating degree days 5181  
Cooling Degree Days 0 0  
Month to date cooling degree days 0  
Year to date cooling degree days 0  
Moisture  
Dew Point 22 °F    
Average Humidity 62    
Maximum Humidity 100    
Minimum Humidity 37    
Precipitation  
Precipitation 0.52 in 0.12 in 2.50 in (1929)
Month to date precipitation 2.16  
Year to date precipitation 13.09  
Sea Level Pressure  
Sea Level Pressure 30.24 in    
Wind  
Wind Speed 16 mph (NW)    
Max Wind Speed 28 mph    
Max Gust Speed 37 mph    
T = Trace of Precipitation, MM = Missing Value Source: NWS Daily Summary

Daily Weather History Graph

Daily Weather History Graph

Search for Another Location

Airport:

Trip Planner

Search our weather history database for the weather conditions in past years. The results will help you decide how hot, cold, wet, or windy it might be!

Date:

Astronomy

Apr. 16, 2014 Rise Set
Actual Time 6:02 AM EDT 7:26 PM EDT
Civil Twilight 5:33 AM EDT 7:56 PM EDT
Nautical Twilight 4:57 AM EDT 8:31 PM EDT
Astronomical Twilight 4:20 AM EDT 9:08 PM EDT
Moon 9:09 PM EDT (4/16) 6:46 AM EDT (4/16)
Length of Visible Light 14h 23m
Length of Day
13h 24m
Full, 98% of the Moon is Illuminated
Apr 16
Full
Apr 22
Last Quarter
Apr 29
New
May 6
First Quarter
May 14
Full

Hourly Weather History & Observations

Time (EDT) Temp. Windchill Dew Point Humidity Pressure Visibility Wind Dir Wind Speed Gust Speed Precip Events Conditions
12:54 AM 37.9 °F 27.9 °F 37.9 °F 100% 29.78 in - NW 19.6 mph 32.2 mph 0.08 in   Unknown
1:54 AM 36.0 °F 26.0 °F 36.0 °F 100% 29.79 in - NW 17.3 mph 25.3 mph 0.07 in   Unknown
2:54 AM 35.1 °F 25.9 °F 34.0 °F 96% 29.82 in - WNW 13.8 mph 20.7 mph 0.06 in   Unknown
3:54 AM 32.0 °F 22.1 °F 32.0 °F 100% 29.85 in - NW 13.8 mph 23.0 mph 0.10 in   Unknown
4:54 AM 30.9 °F 22.8 °F 30.9 °F 100% 29.88 in - NW 9.2 mph 23.0 mph 0.20 in   Unknown
5:54 AM 30.9 °F 19.4 °F 28.9 °F 92% 29.97 in - NW 17.3 mph 28.8 mph 0.01 in   Unknown
6:54 AM 28.9 °F 16.5 °F 26.1 °F 89% 30.05 in - WNW 18.4 mph 28.8 mph N/A   Unknown
7:54 AM 28.0 °F 12.8 °F 19.9 °F 72% 30.13 in - NW 27.6 mph 36.8 mph N/A   Unknown
8:54 AM 30.0 °F 17.5 °F 19.0 °F 64% 30.18 in - NW 19.6 mph 34.5 mph N/A   Unknown
9:54 AM 32.0 °F 21.2 °F 19.0 °F 59% 30.22 in - NNW 16.1 mph 32.2 mph N/A   Unknown
10:54 AM 33.1 °F 20.9 °F 18.0 °F 54% 30.26 in - NW 21.9 mph 33.4 mph N/A   Unknown
11:54 AM 35.1 °F 24.8 °F 19.9 °F 54% 30.30 in - NW 17.3 mph 26.5 mph N/A   Unknown
12:54 PM 37.9 °F 28.9 °F 19.9 °F 48% 30.33 in - NW 16.1 mph 25.3 mph N/A   Unknown
1:54 PM 39.9 °F 30.5 °F 19.9 °F 45% 30.36 in - NW 19.6 mph 28.8 mph N/A   Unknown
2:54 PM 42.1 °F 34.9 °F 19.0 °F 40% 30.37 in - NW 13.8 mph 25.3 mph N/A   Unknown
3:54 PM 44.1 °F 37.7 °F 19.9 °F 38% 30.39 in - NNW 12.7 mph 23.0 mph N/A   Unknown
4:54 PM 42.1 °F 34.9 °F 18.0 °F 38% 30.41 in - NW 13.8 mph 21.9 mph N/A   Unknown
5:54 PM 42.1 °F 34.5 °F 17.1 °F 37% 30.44 in - NNW 15.0 mph 21.9 mph N/A   Unknown
6:54 PM 37.9 °F 30.0 °F 16.0 °F 41% 30.47 in - North 12.7 mph 18.4 mph N/A   Unknown
7:54 PM 35.1 °F 27.4 °F 16.0 °F 46% 30.52 in - North 10.4 mph - N/A   Unknown
8:54 PM 34.0 °F 25.5 °F 14.0 °F 44% 30.56 in - North 11.5 mph - N/A   Unknown
9:54 PM 33.1 °F 24.4 °F 12.9 °F 43% 30.58 in - North 11.5 mph - N/A   Unknown
10:54 PM 32.0 °F 23.6 °F 12.9 °F 45% 30.59 in - North 10.4 mph - N/A   Unknown
11:54 PM 30.9 °F 23.5 °F 12.9 °F 47% 30.62 in - North 8.1 mph - N/A   Unknown